Flag for Romania Weather past 2 weeks in Constanța, Romania

Now
42 °F

Light rain. Overcast.


Feels Like: 42 °F
Forecast: 43 / 50 °F
Wind: 1 mph from Northeast

Location: Constanta

Current Time: Feb 1, 2015 at 3:39:27 AM

Latest Report: Feb 1, 2015 at 3:00 AM


Visibility: 6 mi

Pressure: 29.41 "Hg

Humidity: 100%

Dew point: 42 °F

Location of ConstanțaLocation

Historic Weather in Constanța — Graph

°F

Constanța temperature yesterday

Maximum temperature yesterday: 51 °F (at 7:00 AM)
Minimum temperature yesterday: 43 °F (at 12:00 PM)
Average temperature yesterday: 48 °F

Past Weeks' High & Low Weather Summary

 TemperatureHumidityPressure
High56 °F (Jan 19, 2:00 PM)100% (Jan 18, 7:00 AM)30.33 "Hg (Jan 18, 7:00 AM)
Low33 °F (Jan 18, 8:00 AM)61% (Jan 19, 1:00 PM)29.18 "Hg (Jan 31, 4:00 AM)
Average41 °F94%29.94 "Hg
* Reported Jan 17 2:00 AM — Feb 1 2:00 AM, Constanța, Weather by CustomWeather, © 2014

Note: Actual official high and low records may vary slightly from our data, if they occured in-between our weather recording intervals... More about our weather records

Advertising

Constanța weather history for previous 24 hours

 ConditionsComfort  
Time TempWeatherWind HumidityBarometerVisibility
2:00 AM
Feb 1
42 °FLight rain. Overcast.No wind100%29.41 "Hg6 mi
1:00 AM43 °FLight rain. Overcast.1 mph100%29.44 "Hg6 mi
12:00 AM45 °FLight rain. Overcast.1 mph100%29.44 "Hg6 mi
10:00 PM
Jan 31
46 °FLight rain. Overcast.No wind96%29.44 "Hg6 mi
9:00 PM46 °FLight rain. Overcast.3 mph91%29.41 "Hg6 mi
8:00 PM46 °FOvercast.1 mph88%29.41 "Hg6 mi
7:00 PM45 °FOvercast.1 mph88%29.38 "Hg6 mi
6:00 PM45 °FOvercast.1 mph89%29.38 "Hg6 mi
5:00 PM45 °FOvercast.1 mph89%29.38 "Hg6 mi
4:00 PM46 °FPartly sunny.1 mph84%29.35 "Hg6 mi
3:00 PM50 °FPartly sunny.3 mph69%29.32 "Hg6 mi
2:00 PM48 °FScattered clouds.5 mph77%29.29 "Hg6 mi
1:00 PM45 °FPartly sunny.3 mph88%29.29 "Hg6 mi
12:00 PM43 °FLight rain. Overcast.5 mph93%29.32 "Hg6 mi
11:00 AM46 °FSprinkles. Overcast.10 mph86%29.26 "Hg6 mi
10:00 AM50 °FOvercast.2 mph86%29.18 "Hg6 mi
9:00 AM50 °FOvercast.2 mph85%29.18 "Hg6 mi
8:00 AM50 °FLight rain. Overcast.2 mph85%29.18 "Hg6 mi
7:00 AM51 °FOvercast.1 mph79%29.18 "Hg6 mi
6:00 AM50 °FOvercast.2 mph80%29.18 "Hg6 mi
5:00 AM50 °FPassing clouds.6 mph80%29.18 "Hg6 mi
4:00 AM50 °FPassing clouds.2 mph83%29.18 "Hg6 mi
3:00 AM49 °FOvercast.2 mph85%29.21 "Hg6 mi
Weather by CustomWeather, © 2014

See weather overviewHow to use our weather pages